Regional Weather Roundup
Issued by NWS

Home | Current Version | Previous Version | Text Only | Print | Product List | Glossary Off
Versions: 1 2 3 4 5 6 7 8 9 10 11 12 13 14 15 16 17 18 19 20 21 22 23 24 25 26 27 28 29 30 31 32 33 34 35 36 37 38 39 40 41 42 43 44 45 46 47 48 49 50

554
ASUS43 KBIS 240010
RWRND

NORTH DAKOTA REGIONAL WEATHER ROUNDUP
NATIONAL WEATHER SERVICE BISMARCK ND
700 PM CDT THU MAR 23 2017

NOTE: "FAIR" INDICATES FEW OR NO CLOUDS BELOW 12,000 FEET WITH NO
SIGNIFICANT WEATHER AND/OR OBSTRUCTIONS TO VISIBILITY.


NDZ001>003-009>011-017-240100-
NORTHWEST NORTH DAKOTA

CITY           SKY/WX    TMP DP  RH WIND       PRES   REMARKS
WILLISTON      FAIR      56  36  47 NE8       29.80R
6HR MIN TEMP:  49; 6HR MAX TEMP:  58;

MINOT          FAIR      42  34  73 N8        29.78S
MINOT AFB      CLOUDY    38  32  79 N7        29.78R
$$

NDZ018>021-031>035-040>046-240100-
SOUTHWEST NORTH DAKOTA

CITY           SKY/WX    TMP DP  RH WIND       PRES   REMARKS
BISMARCK       LGT RAIN  42  39  89 NW7       29.80R FOG
6HR MIN TEMP:  38; 6HR MAX TEMP:  42; 6HR PCP:  0.01;

DICKINSON      CLOUDY    49  34  56 S6        29.77R
GARRISON         N/A     43  36  76 N3        29.78R
6HR MIN TEMP:  38; 6HR MAX TEMP:  44;

HETTINGER ARPT LGT RAIN  43  40  89 E6        29.82R
$$

NDZ004>008-012>016-024-026-027-054-240100-
NORTHEAST NORTH DAKOTA

CITY           SKY/WX    TMP DP  RH WIND       PRES   REMARKS
GRAND FORKS    CLOUDY    37  35  92 S8        29.80S
GRND FRKS AFB  CLOUDY    36  35  99 CALM      29.80S
DEVILS LAKE    CLOUDY    35  33  92 CALM      29.79R
$$

NDZ022-023-025-028>030-036>039-047>053-240100-
SOUTHEAST NORTH DAKOTA

CITY           SKY/WX    TMP DP  RH WIND       PRES   REMARKS
FARGO          CLOUDY    37  36  96 SE10      29.79F FOG
6HR MIN TEMP:  37; 6HR MAX TEMP:  43; 6HR PCP:  0.16;

JAMESTOWN      CLOUDY    40  37  89 CALM      29.78R
$$





USA.gov is the U.S. government's official web portal to all federal, state and local government web resources and services.